| time (UTC) | temp C | wind direction | speed KPH | gust KPH | rain 1hr cm | rain 24hr cm | rain mn cm | humidity % | barometer mb |
| 20260505223058 | 0 | 270 | 1.6 | 4.8 | 0.00 | 0.05 | 0.00 | 61 | 1007.7 |
| 20260505220049 | 0 | 270 | 1.6 | 3.2 | 0.00 | 0.05 | 0.00 | 60 | 1007.6 |
| 20260505213040 | 1 | 270 | 0.0 | 3.2 | 0.00 | 0.05 | 0.05 | 58 | 1007.4 |
| 20260505210051 | 2 | 270 | 1.6 | 3.2 | 0.00 | 0.05 | 0.05 | 55 | 1007.2 |
| 20260505203019 | 3 | 270 | 1.6 | 4.8 | 0.00 | 0.05 | 0.05 | 54 | 1007.1 |
| 20260505200111 | 5 | 270 | 1.6 | 4.8 | 0.00 | 0.05 | 0.05 | 52 | 1006.8 |
| 20260505193100 | 6 | 281 | 1.6 | 4.8 | 0.00 | 0.05 | 0.05 | 48 | 1006.5 |
| 20260505190049 | 8 | 286 | 1.6 | 8.0 | 0.00 | 0.05 | 0.05 | 34 | 1006.2 |
| 20260505183043 | 10 | 278 | 4.8 | 9.7 | 0.00 | 0.05 | 0.05 | 32 | 1005.9 |
| 20260505180112 | 11 | 270 | 6.4 | 12.9 | 0.00 | 0.05 | 0.05 | 31 | 1005.8 |
| 20260505173043 | 11 | 270 | 8.0 | 17.7 | 0.00 | 0.05 | 0.05 | 31 | 1005.6 |
| 20260505170112 | 12 | 269 | 8.0 | 19.3 | 0.00 | 0.05 | 0.05 | 30 | 1005.5 |
| 20260505163101 | 12 | 266 | 9.7 | 24.1 | 0.00 | 0.05 | 0.05 | 30 | 1005.4 |
| 20260505153043 | 12 | 280 | 11.3 | 25.7 | 0.00 | 0.05 | 0.05 | 28 | 1005.4 |
| 20260505140112 | 12 | 266 | 11.3 | 29.0 | 0.00 | 0.05 | 0.05 | 29 | 1005.3 |
| 20260505123103 | 12 | 256 | 9.7 | 22.5 | 0.00 | 0.05 | 0.05 | 31 | 1005.2 |
| 20260505120032 | 12 | 233 | 11.3 | 30.6 | 0.00 | 0.05 | 0.05 | 33 | 1005.1 |
| 20260505113021 | 11 | 253 | 9.7 | 22.5 | 0.00 | 0.05 | 0.05 | 36 | 1005.0 |
| 20260505110112 | 11 | 247 | 9.7 | 20.9 | 0.00 | 0.05 | 0.05 | 37 | 1004.8 |
| 20260505100114 | 11 | 268 | 9.7 | 20.9 | 0.00 | 0.05 | 0.05 | 42 | 1004.6 |
| 20260505093042 | 10 | 288 | 12.9 | 27.4 | 0.00 | 0.05 | 0.05 | 42 | 1004.5 |
| 20260505090032 | 11 | 259 | 9.7 | 20.9 | 0.00 | 0.05 | 0.05 | 41 | 1004.3 |
| 20260505083022 | 11 | 270 | 12.9 | 25.7 | 0.00 | 0.05 | 0.05 | 41 | 1004.1 |
| 20260505080132 | 12 | 260 | 12.9 | 25.7 | 0.00 | 0.05 | 0.05 | 39 | 1004.0 |
| 20260505073102 | 15 | 255 | 9.7 | 19.3 | 0.05 | 0.05 | 0.05 | 37 | 1003.7 |
| 20260505070053 | 15 | 262 | 11.3 | 20.9 | 0.05 | 0.08 | 0.05 | 37 | 1003.5 |
| 20260505063042 | 12 | 260 | 9.7 | 17.7 | 0.00 | 0.03 | 0.00 | 47 | 1003.4 |
| 20260505060034 | 8 | 287 | 8.0 | 17.7 | 0.00 | 0.03 | 0.00 | 61 | 1003.2 |
| 20260505053023 | 8 | 254 | 6.4 | 14.5 | 0.00 | 0.05 | 0.00 | 73 | 1003.0 |
| 20260505050115 | 7 | 244 | 4.8 | 12.9 | 0.00 | 0.08 | 0.00 | 76 | 1002.8 |
| 20260505040053 | 7 | 264 | 6.4 | 19.3 | 0.00 | 0.23 | 0.00 | 76 | 1002.2 |
| 20260505033043 | 7 | 233 | 6.4 | 14.5 | 0.00 | 0.41 | 0.00 | 79 | 1002.1 |
| 20260505030033 | 6 | 234 | 6.4 | 12.9 | 0.00 | 0.56 | 0.00 | 81 | 1002.1 |
| 20260505023023 | 7 | 219 | 6.4 | 14.5 | 0.00 | 0.76 | 0.00 | 79 | 1001.9 |
| 20260505020113 | 7 | 208 | 6.4 | 19.3 | 0.00 | 0.86 | 0.00 | 76 | 1001.8 |
| 20260505013103 | 7 | 230 | 4.8 | 16.1 | 0.00 | 0.91 | 0.00 | 74 | 1001.8 |
| 20260505010053 | 7 | 221 | 3.2 | 14.5 | 0.00 | 0.91 | 0.00 | 73 | 1001.8 |
| 20260505003043 | 7 | 211 | 3.2 | 8.0 | 0.00 | 0.91 | 0.00 | 70 | 1001.8 |
| 20260505000036 | 7 | 214 | 3.2 | 9.7 | 0.00 | 0.91 | 0.00 | 66 | 1001.8 |
| 20260504233026 | 7 | 199 | 1.6 | 8.0 | 0.00 | 0.91 | 0.00 | 59 | 1001.8 |
| 20260504230118 | 7 | 180 | 1.6 | 9.7 | 0.00 | 0.91 | 0.00 | 55 | 1001.9 |